Zurück zum Katalog

ONEWEB-0607

AktivKommunikationPO
NORAD 54671·PAYLOAD·🇬🇧 United Kingdom

Gestartet Dec 8, 2022 von Cape Canaveral Space Force Station

Loading…

Nächste Überflüge (nächste 24 Stunden)

TLE

AktuellSource: CelesTrak SupGP

Epoche: Sep 14, 2026, 20:00 UTC

1 54671C 22166AF  26257.83383519  .00003336  00000+0  80874-2 0  2572
2 54671  87.9284 226.1295 0002162  84.4911 310.9461 13.21824291    16

Verfolge ONEWEB-0607 in Echtzeit mit AllMySat

Download on the App Store